EN

Hourly Weather Alshihovo

Today, 22 January, Friday

Time Temperature Precipitation Wind Pressure Humidity
00:00 -15°C° 0.2 mm 4 mps 753 mmHg 94%
01:00 -15°C° 0.1 mm 3 mps 753 mmHg 94%
02:00 -15°C° 0.1 mm 3 mps 753 mmHg 94%
03:00 -15°C° 0.1 mm 2 mps 753 mmHg 94%
04:00 -16°C° 0 mm 2 mps 753 mmHg 94%
05:00 -17°C° 0 mm 2 mps 753 mmHg 95%
06:00 -17°C° 0 mm 2 mps 753 mmHg 95%
07:00 -17°C° 0 mm 2 mps 753 mmHg 95%
08:00 -18°C° 0 mm 2 mps 754 mmHg 95%
09:00 -18°C° 0 mm 2 mps 754 mmHg 94%
10:00 -15°C° 0 mm 1 mps 754 mmHg 94%
11:00 -15°C° 0 mm 1 mps 755 mmHg 94%
12:00 -14°C° 0 mm 1 mps 755 mmHg 93%
13:00 -14°C° 0 mm 1 mps 755 mmHg 93%
14:00 -15°C° 0 mm 1 mps 755 mmHg 93%
15:00 -15°C° 0 mm 0 mps 755 mmHg 93%
16:00 -15°C° 0 mm 1 mps 756 mmHg 93%
17:00 -15°C° 0 mm 1 mps 756 mmHg 93%
18:00 -15°C° 0 mm 1 mps 756 mmHg 93%
19:00 -15°C° 0 mm 1 mps 757 mmHg 93%
20:00 -17°C° 0 mm 2 mps 757 mmHg 94%
21:00 -17°C° 0 mm 2 mps 757 mmHg 95%
22:00 -18°C° 0 mm 3 mps 758 mmHg 95%
23:00 -18°C° 0 mm 3 mps 758 mmHg 95%

Tomorrow, 23 January, Saturday

Time Temperature Precipitation Wind Pressure Humidity
00:00 -18°C° 0 mm 3 mps 758 mmHg 95%
01:00 -19°C° 0.1 mm 4 mps 758 mmHg 95%
02:00 -18°C° 0.1 mm 4 mps 758 mmHg 95%
03:00 -18°C° 0.1 mm 4 mps 757 mmHg 95%
04:00 -18°C° 0.2 mm 5 mps 757 mmHg 95%
05:00 -18°C° 0.2 mm 5 mps 757 mmHg 94%
06:00 -17°C° 0.2 mm 5 mps 757 mmHg 94%
07:00 -15°C° 0.2 mm 5 mps 757 mmHg 94%
08:00 -15°C° 0.2 mm 5 mps 757 mmHg 94%
09:00 -15°C° 0.2 mm 6 mps 757 mmHg 94%
10:00 -13°C° 0.4 mm 5 mps 756 mmHg 94%
11:00 -12°C° 0.4 mm 5 mps 756 mmHg 94%
12:00 -11°C° 0.4 mm 5 mps 756 mmHg 95%
13:00 -10°C° 0.3 mm 5 mps 755 mmHg 95%
14:00 -8°C° 0.3 mm 5 mps 755 mmHg 95%
15:00 -7°C° 0.3 mm 5 mps 755 mmHg 95%
16:00 -6°C° 0.2 mm 5 mps 755 mmHg 96%
17:00 -4°C° 0.2 mm 4 mps 755 mmHg 97%
18:00 -2°C° 0.2 mm 4 mps 755 mmHg 98%
19:00 -2°C° 0.1 mm 4 mps 755 mmHg 98%
20:00 -1°C° 0.1 mm 4 mps 755 mmHg 98%
21:00 -1°C° 0.1 mm 5 mps 755 mmHg 98%
22:00 -1°C° 0.1 mm 4 mps 755 mmHg 99%
23:00 0°C° 0.1 mm 4 mps 755 mmHg 99%

Day after tomorrow, 24 January, Sunday

Time Temperature Precipitation Wind Pressure Humidity
00:00 0°C° 0.1 mm 4 mps 755 mmHg 99%
01:00 0°C° 0.1 mm 4 mps 755 mmHg 99%
02:00 0°C° 0.1 mm 5 mps 755 mmHg 98%
03:00 0°C° 0.1 mm 5 mps 756 mmHg 98%
04:00 -1°C° 0 mm 5 mps 756 mmHg 97%
05:00 -1°C° 0 mm 4 mps 756 mmHg 96%
06:00 0°C° 0 mm 3 mps 756 mmHg 95%
07:00 0°C° 0 mm 3 mps 756 mmHg 95%
08:00 0°C° 0 mm 3 mps 757 mmHg 96%
09:00 0°C° 0 mm 3 mps 757 mmHg 96%
10:00 0°C° 0 mm 3 mps 757 mmHg 97%
11:00 -1°C° 0 mm 4 mps 757 mmHg 98%
12:00 -1°C° 0 mm 4 mps 757 mmHg 99%
13:00 -1°C° 0.1 mm 4 mps 757 mmHg 99%
14:00 0°C° 0.1 mm 3 mps 757 mmHg 99%
15:00 0°C° 0.1 mm 3 mps 758 mmHg 99%
16:00 0°C° 0.1 mm 3 mps 758 mmHg 99%
17:00 0°C° 0.1 mm 3 mps 758 mmHg 98%
18:00 -1°C° 0.1 mm 4 mps 758 mmHg 97%
19:00 0°C° 0 mm 3 mps 758 mmHg 96%
20:00 0°C° 0 mm 3 mps 759 mmHg 95%
21:00 0°C° 0 mm 3 mps 759 mmHg 94%
22:00 0°C° 0.1 mm 3 mps 759 mmHg 94%
23:00 -1°C° 0.1 mm 4 mps 759 mmHg 94%

25 January, Monday

Time Temperature Precipitation Wind Pressure Humidity
00:00 -1°C° 0.1 mm 4 mps 759 mmHg 93%
01:00 -1°C° 0.1 mm 4 mps 759 mmHg 93%
02:00 -1°C° 0.1 mm 4 mps 759 mmHg 93%
03:00 -1°C° 0.1 mm 4 mps 760 mmHg 92%
04:00 -1°C° 0 mm 4 mps 760 mmHg 92%
05:00 -2°C° 0 mm 4 mps 760 mmHg 91%
06:00 -2°C° 0 mm 5 mps 760 mmHg 91%
07:00 -3°C° 0 mm 4 mps 760 mmHg 91%
08:00 -4°C° 0 mm 4 mps 760 mmHg 92%
09:00 -4°C° 0 mm 4 mps 761 mmHg 93%
10:00 -4°C° 0 mm 4 mps 761 mmHg 92%
11:00 -4°C° 0 mm 4 mps 761 mmHg 91%
12:00 -5°C° 0 mm 5 mps 761 mmHg 91%
13:00 -6°C° 0 mm 5 mps 761 mmHg 91%
14:00 -5°C° 0 mm 4 mps 761 mmHg 92%
15:00 -5°C° 0 mm 4 mps 760 mmHg 92%
16:00 -6°C° 0 mm 5 mps 760 mmHg 93%
17:00 -6°C° 0 mm 5 mps 760 mmHg 94%
18:00 -6°C° 0 mm 6 mps 760 mmHg 95%
19:00 -5°C° 0 mm 6 mps 760 mmHg 94%
20:00 -5°C° 0 mm 5 mps 760 mmHg 93%
21:00 -5°C° 0 mm 5 mps 760 mmHg 92%
22:00 -5°C° 0 mm 5 mps 760 mmHg 93%
23:00 -5°C° 0 mm 5 mps 760 mmHg 93%

26 January, Tuesday

Time Temperature Precipitation Wind Pressure Humidity
00:00 -5°C° 0 mm 5 mps 760 mmHg 93%
01:00 -5°C° 0 mm 5 mps 760 mmHg 93%
02:00 -5°C° 0 mm 5 mps 760 mmHg 93%
03:00 -5°C° 0 mm 5 mps 760 mmHg 94%
04:00 -5°C° 0 mm 5 mps 760 mmHg 93%
05:00 -5°C° 0 mm 5 mps 760 mmHg 93%
06:00 -6°C° 0 mm 5 mps 760 mmHg 93%
07:00 -6°C° 0 mm 5 mps 760 mmHg 93%
08:00 -5°C° 0 mm 4 mps 760 mmHg 93%
09:00 -5°C° 0 mm 4 mps 760 mmHg 93%
10:00 -5°C° 0 mm 5 mps 760 mmHg 92%
11:00 -5°C° 0 mm 5 mps 760 mmHg 92%
12:00 -5°C° 0 mm 5 mps 760 mmHg 91%
13:00 -5°C° 0 mm 5 mps 759 mmHg 92%
14:00 -5°C° 0 mm 5 mps 759 mmHg 92%
15:00 -6°C° 0 mm 5 mps 759 mmHg 92%
16:00 -6°C° 0 mm 5 mps 759 mmHg 93%
17:00 -6°C° 0 mm 5 mps 759 mmHg 93%
18:00 -6°C° 0 mm 5 mps 759 mmHg 93%
19:00 -6°C° 0 mm 6 mps 759 mmHg 93%
20:00 -6°C° 0 mm 6 mps 758 mmHg 93%
21:00 -7°C° 0 mm 7 mps 758 mmHg 93%
22:00 -7°C° 0 mm 7 mps 758 mmHg 93%
23:00 -7°C° 0 mm 7 mps 758 mmHg 93%

27 January, Wednesday

Time Temperature Precipitation Wind Pressure Humidity
00:00 -7°C° 0 mm 7 mps 757 mmHg 93%
01:00 -6°C° 0 mm 6 mps 757 mmHg 92%
02:00 -6°C° 0 mm 6 mps 757 mmHg 92%
03:00 -6°C° 0 mm 6 mps 757 mmHg 92%
04:00 -6°C° 0.3 mm 6 mps 756 mmHg 93%
05:00 -6°C° 0.3 mm 7 mps 756 mmHg 94%
06:00 -6°C° 0.3 mm 7 mps 756 mmHg 95%
07:00 -6°C° 0.6 mm 7 mps 756 mmHg 94%
08:00 -7°C° 0.6 mm 7 mps 756 mmHg 93%
09:00 -7°C° 0.6 mm 7 mps 756 mmHg 92%
10:00 -5°C° 0 mm 6 mps 756 mmHg 92%
11:00 -4°C° 0 mm 6 mps 756 mmHg 92%
12:00 -4°C° 0 mm 6 mps 756 mmHg 91%
13:00 -4°C° 0 mm 6 mps 756 mmHg 92%
14:00 -4°C° 0 mm 6 mps 756 mmHg 92%
15:00 -4°C° 0 mm 6 mps 756 mmHg 93%
16:00 -4°C° 0.1 mm 6 mps 756 mmHg 93%
17:00 -4°C° 0.1 mm 6 mps 756 mmHg 94%
18:00 -5°C° 0.1 mm 6 mps 756 mmHg 95%
19:00 -5°C° 0.2 mm 6 mps 756 mmHg 95%
20:00 -5°C° 0.2 mm 6 mps 756 mmHg 94%
21:00 -5°C° 0.2 mm 6 mps 756 mmHg 94%
22:00 -6°C° 0.4 mm 6 mps 755 mmHg 94%
23:00 -6°C° 0.4 mm 6 mps 755 mmHg 95%
Show more